Weather History for Greensboro, NC

Change the Weather History Date:

Sunday, February 2, 2014

  Actual Average Record
Temperature  
Mean Temperature 52 °F 40 °F  
Max Temperature 65 °F 50 °F 78 °F (1989)
Min Temperature 39 °F 30 °F 6 °F (1971)
Degree Days  
Heating Degree Days 13 25  
Month to date heating degree days 35 50  
Since 1 July heating degree days 2373 2273  
Cooling Degree Days 0 0  
Month to date cooling degree days 0 0  
Year to date cooling degree days 0 0  
Growing Degree Days 2 (Base 50)    
Moisture  
Dew Point 40 °F    
Average Humidity 68    
Maximum Humidity 92    
Minimum Humidity 43    
Precipitation  
Precipitation 0.00 in 0.10 in 2.59 in (1916)
Month to date precipitation T 0.20  
Year to date precipitation 3.98 3.26  
Snow  
Snow 0.00 in 0.10 in 2.00 in (1912)
Month to date snowfall 0.0 0.2  
Since 1 July snowfall 1.6 4.5  
Snow Depth 0.00 in    
Sea Level Pressure  
Sea Level Pressure 30.04 in    
Wind  
Wind Speed 8 mph (SW)    
Max Wind Speed 17 mph    
Max Gust Speed 21 mph    
Visibility 10 miles    
Events      
T = Trace of Precipitation, MM = Missing Value Source: NWS Daily Summary

Daily Weather History Graph

Daily Weather History Graph

Search for Another Location

Airport:

Trip Planner

Search our weather history database for the weather conditions in past years. The results will help you decide how hot, cold, wet, or windy it might be!

Date:

Astronomy

Feb. 02, 2014 Rise Set
Actual Time 7:19 AM EST 5:47 PM EST
Civil Twilight 6:52 AM EST 6:14 PM EST
Nautical Twilight 6:22 AM EST 6:45 PM EST
Astronomical Twilight 5:52 AM EST 7:15 PM EST
Moon 8:52 AM EST (2/2) 9:21 PM EST (2/2)
Length of Visible Light 11h 21m
Length of Day
10h 27m
Waxing Crescent, 11% of the Moon is Illuminated
Feb 2
Waxing Crescent
Feb 6
First Quarter
Feb 14
Full
Feb 22
Last Quarter
Mar 1
New

Hourly Weather History & Observations

Time (EST) Temp. Windchill Dew Point Humidity Pressure Visibility Wind Dir Wind Speed Gust Speed Precip Events Conditions
12:47 AM 48.2 °F - 33.8 °F 58% 30.06 in 10.0 mi SW 6.9 mph - N/A   Overcast
12:54 AM 48.0 °F - 34.0 °F 58% 30.06 in 10.0 mi SW 8.1 mph - N/A   Overcast
1:54 AM 48.0 °F - 37.0 °F 66% 30.05 in 10.0 mi WSW 9.2 mph - N/A   Overcast
2:31 AM 48.2 °F - 39.2 °F 71% 30.05 in 10.0 mi SW 8.1 mph - N/A   Overcast
2:54 AM 46.0 °F 42.5 °F 37.9 °F 73% 30.04 in 10.0 mi SW 6.9 mph - N/A   Partly Cloudy
3:54 AM 42.1 °F 38.4 °F 36.0 °F 79% 30.04 in 10.0 mi SSW 5.8 mph - N/A   Partly Cloudy
4:54 AM 41.0 °F 36.4 °F 36.0 °F 82% 30.05 in 10.0 mi SW 6.9 mph - N/A   Clear
5:54 AM 41.0 °F 35.8 °F 36.0 °F 82% 30.05 in 10.0 mi SW 8.1 mph - N/A   Partly Cloudy
6:54 AM 39.0 °F 33.4 °F 36.0 °F 89% 30.04 in 8.0 mi SSW 8.1 mph - N/A   Scattered Clouds
7:54 AM 39.9 °F 34.5 °F 37.0 °F 89% 30.05 in 6.0 mi SW 8.1 mph - N/A   Mostly Cloudy
8:46 AM 44.6 °F 38.4 °F 39.2 °F 81% 30.06 in 8.0 mi WSW 12.7 mph - N/A   Mostly Cloudy
8:54 AM 45.0 °F 39.3 °F 41.0 °F 86% 30.06 in 8.0 mi WSW 11.5 mph - N/A   Mostly Cloudy
9:54 AM 46.9 °F - 39.9 °F 77% 30.09 in 8.0 mi WSW 11.5 mph - N/A   Mostly Cloudy
10:54 AM 50.0 °F - 39.9 °F 68% 30.09 in 9.0 mi West 10.4 mph - N/A   Mostly Cloudy
11:54 AM 54.0 °F - 39.0 °F 57% 30.07 in 10.0 mi SW 10.4 mph - N/A   Mostly Cloudy
12:54 PM 57.9 °F - 37.9 °F 47% 30.04 in 10.0 mi WSW 8.1 mph - N/A   Overcast
1:54 PM 61.0 °F - 39.0 °F 44% 30.01 in 10.0 mi WSW 8.1 mph - N/A   Overcast
2:54 PM 64.0 °F - 41.0 °F 43% 30.00 in 10.0 mi South 10.4 mph - N/A   Mostly Cloudy
3:54 PM 64.9 °F - 43.0 °F 45% 30.01 in 10.0 mi West 6.9 mph - N/A   Mostly Cloudy
4:54 PM 64.0 °F - 43.0 °F 46% 30.01 in 10.0 mi SW 4.6 mph - N/A   Mostly Cloudy
5:54 PM 59.0 °F - 44.1 °F 58% 30.01 in 10.0 mi SW 6.9 mph - N/A   Scattered Clouds
6:54 PM 55.9 °F - 44.1 °F 64% 30.01 in 10.0 mi SSE 5.8 mph - N/A   Scattered Clouds
7:54 PM 55.0 °F - 44.1 °F 67% 30.02 in 10.0 mi South 4.6 mph - N/A   Partly Cloudy
8:54 PM 52.0 °F - 45.0 °F 77% 30.01 in 10.0 mi South 4.6 mph - N/A   Mostly Cloudy
9:54 PM 53.1 °F - 46.9 °F 80% 30.01 in 10.0 mi South 6.9 mph - N/A   Scattered Clouds
10:54 PM 51.1 °F - 46.9 °F 86% 30.00 in 10.0 mi South 6.9 mph - N/A   Mostly Cloudy
11:54 PM 52.0 °F - 48.0 °F 86% 29.98 in 10.0 mi South 8.1 mph - N/A   Mostly Cloudy